Home   Weather   Greater Sudbury   Past weeks

Flag for Canada Past Weather in Greater Sudbury, Ontario, Canada — Yesterday and Last 2 Weeks

Now
30 °F

Light snow. Ice fog.


Feels Like: 25 °F
Forecast: 30 / 32 °F
Wind: 5 mph from South

Location: Sudbury

Current Time: Jan 20, 2017 at 2:59:23 pm

Latest Report: Jan 20, 2017 at 2:00 pm


Visibility: 3 mi

Pressure: 29.77 "Hg

Humidity: 93%

Dew Point: 28 °F

Location of Greater SudburyLocation

Past Weather in Greater Sudbury — Graph

°F

Greater Sudbury Temperature Yesterday

Maximum temperature yesterday: 32 °F (at 12:00 am)
Minimum temperature yesterday: 30 °F (at 9:00 am)
Average temperature yesterday: 32 °F

High & Low Weather Summary for the Past Weeks

 TemperatureHumidityPressure
High37 °F (Jan 10, 11:00 pm)100% (Jan 10, 10:00 pm)30.83 "Hg (Jan 10, 10:00 pm)
Low-11 °F (Jan 6, 7:00 am)46% (Jan 13, 3:00 pm)29.09 "Hg (Jan 10, 11:00 pm)
Average16 °F82%30.10 "Hg
* Reported Jan 5 2:00 pm — Jan 20 2:00 pm, Greater Sudbury, Weather by CustomWeather, © 2017

Note: Actual official high and low records may vary slightly from our data, if they occured in-between our weather recording intervals... More about our weather records

Advertising

Greater Sudbury Weather History for the Previous 24 Hours

Scroll right to see more
 ConditionsComfort  
Time TempWeatherWind HumidityBarometerVisibility
2:00 pm
Fri, Jan 20
30 °FLight snow. Ice fog.5 mph93%29.77 "Hg3 mi
1:45 pm30 °FLight snow. Ice fog.5 mph93%29.78 "Hg3 mi
1:00 pm30 °FLight snow. Low clouds.3 mph93%29.80 "Hg2 mi
12:44 pm30 °FLight snow. Ice fog.7 mph93%29.80 "Hg2 mi
12:00 pm30 °FLight freezing rain. Ice fog.6 mph93%29.82 "Hg2 mi
11:00 am30 °FLight freezing rain. Ice fog.6 mph93%29.85 "Hg2 mi
10:00 am30 °FLight freezing rain. Ice fog.5 mph93%29.85 "Hg2 mi
9:00 am30 °FLight freezing rain. Ice fog.7 mph93%29.85 "Hg2 mi
8:00 am30 °FLight freezing rain. Ice fog.8 mph93%29.85 "Hg1 mi
7:52 am30 °FLight freezing rain. Ice fog.9 mph100%29.84 "Hg1 mi
7:00 am30 °FLight freezing rain. Ice fog.8 mph100%29.85 "Hg2 mi
6:00 am30 °FLight freezing rain. Ice fog.13 mph100%29.86 "Hg2 mi
5:00 am30 °FLight freezing rain. Ice fog.8 mph100%29.87 "Hg2 mi
4:00 am32 °FLight freezing rain. Ice fog.13 mph93%29.89 "Hg2 mi
3:00 am32 °FLight freezing rain. Ice fog.13 mph93%29.91 "Hg2 mi
2:00 am32 °FLight freezing rain. Ice fog.13 mph93%29.92 "Hg2 mi
1:00 am32 °FLight freezing rain. Ice fog.12 mph93%29.92 "Hg2 mi
12:00 am32 °FLight freezing rain. Ice fog.9 mph93%29.93 "Hg2 mi
11:00 pm
Thu, Jan 19
32 °FLight freezing rain. Ice fog.10 mph93%29.93 "Hg2 mi
10:00 pm32 °FLight freezing rain. Ice fog.8 mph93%29.94 "Hg2 mi
9:00 pm32 °FLight freezing rain. Ice fog.10 mph93%29.96 "Hg2 mi
8:35 pm32 °FLight freezing rain. Ice fog.9 mph93%29.98 "Hg2 mi
8:00 pm32 °FDrizzle. Ice fog.7 mph93%30.00 "Hg2 mi
7:00 pm32 °FLow clouds.10 mph93%30.01 "Hg8 mi
6:00 pm32 °FLow clouds.7 mph93%29.99 "Hg8 mi
5:00 pm32 °FLow clouds.8 mph93%29.98 "Hg10 mi
4:00 pm32 °FLow clouds.7 mph87%29.96 "Hg10 mi
3:00 pm32 °FLow clouds.9 mph87%29.96 "Hg15 mi
2:00 pm32 °FLow clouds.8 mph93%29.98 "Hg15 mi
Weather by CustomWeather, © 2017

See weather overviewHow to use our weather pages